This demonstration page uses our WeatherBlox Daily Observations layout. Learn more.

39.29038, -76.61219

Hourly Observations for May 6, 2019

Temp ( °F °C ) Dew Point ( °F °C ) Humidity (%) Winds ( mph kmh ) Pressure ( in mb ) Visibility ( mi km ) Precip ( " mm )
12:54 am 00:54 undefined 58 14.4 53 11.7 84 84 undefined N/A 29.86 1011 N/A 0 0
1:54 am 01:54 undefined 58 14.4 53 11.7 84 84 undefined N/A 29.86 1011 N/A 0 0
2:54 am 02:54 undefined 57 13.9 51 10.6 81 81 undefined N/A 29.88 1012 N/A 0 0
3:54 am 03:54 undefined 57 13.9 51 10.6 81 81 undefined N/A 29.9 1013 N/A 0 0
4:54 am 04:54 undefined 58 14.4 51 10.6 78 78 undefined N/A 29.92 1013 N/A 0 0
5:54 am 05:54 undefined 58 14.4 51 10.6 78 78 undefined N/A 29.93 1014 N/A 0 0
6:54 am 06:54 undefined 58 14.4 51 10.6 78 78 undefined N/A 29.96 1015 N/A 0 0
7:54 am 07:54 undefined 61 16.1 52 11.1 72 72 undefined N/A 30 1016 N/A 0 0
8:54 am 08:54 undefined 62 16.7 52 11.1 70 70 undefined N/A 30.01 1016 N/A 0 0
9:54 am 09:54 undefined 66 18.9 55 12.8 68 68 undefined N/A 30.04 1017 N/A 0 0
10:54 am 10:54 undefined 67 19.4 53 11.7 61 61 undefined N/A 30.03 1017 N/A 0 0
11:54 am 11:54 undefined 69 20.6 55 12.8 61 61 undefined N/A 30.04 1017 N/A 0 0
12:54 pm 12:54 undefined 72 22.2 55 12.8 55 55 undefined N/A 30.02 1017 N/A 0 0
1:54 pm 13:54 undefined 74 23.3 54 12.2 50 50 undefined N/A 29.99 1016 N/A 0 0
2:54 pm 14:54 undefined 74 23.3 54 12.2 50 50 undefined N/A 29.98 1015 N/A 0 0
3:54 pm 15:54 undefined 73 22.8 58 14.4 59 59 undefined N/A 29.99 1016 N/A 0 0
4:54 pm 16:54 undefined 72 22.2 58 14.4 61 61 undefined N/A 30 1016 N/A 0 0
5:54 pm 17:54 undefined 71 21.7 57 13.9 61 61 undefined N/A 29.99 1016 N/A 0 0
6:54 pm 18:54 undefined 70 21.1 57 13.9 64 64 undefined N/A 30.01 1016 N/A 0 0
7:54 pm 19:54 undefined 70 21.1 57 13.9 64 64 undefined N/A 30.03 1017 N/A 0 0
8:54 pm 20:54 undefined 69 20.6 56 13.3 63 63 undefined N/A 30.06 1018 N/A 0 0
9:54 pm 21:54 undefined 68 20 56 13.3 65 65 undefined N/A 30.08 1019 N/A 0 0
10:54 pm 22:54 undefined 67 19.4 56 13.3 68 68 undefined N/A 30.09 1019 N/A 0 0
11:54 pm 23:54 undefined 65 18.3 57 13.9 76 76 undefined N/A 30.09 1019 N/A 0 0

Powered by AerisWeather